GW1495 Weather Reports


time (UTC)temp
C
wind
direction
speed
KPH
gust
KPH
rain 1hr
cm
rain 24hr
cm
rain mn
cm
humidity
%
barometer
mb
20260901023947 23 72 0.0 0.0 0.00 0.00 0.00 93 1013.8
20260901023313 23 72 0.0 0.0 0.00 0.00 0.00 94 1013.8
20260901022124 23 72 0.0 0.0 0.00 0.00 0.00 93 1013.8
20260901021528 23 72 0.0 0.0 0.00 0.00 0.00 93 1013.8
20260901020927 23 72 0.0 0.0 0.00 0.00 0.00 93 1013.8
20260901015726 23 72 1.6 1.6 0.00 0.00 0.00 92 1013.5
20260901015140 23 72 0.0 0.0 0.00 0.00 0.00 92 1013.5
20260901014526 23 72 0.0 0.0 0.00 0.00 0.00 93 1013.2
20260901013923 23 72 0.0 0.0 0.00 0.00 0.00 92 1013.2
20260901013343 23 72 0.0 0.0 0.00 0.00 0.00 92 1013.2
20260901012709 23 72 0.0 0.0 0.00 0.00 0.00 91 1012.8
20260901012114 23 72 0.0 0.0 0.00 0.00 0.00 92 1012.8
20260901011528 23 72 0.0 0.0 0.00 0.00 0.00 94 1012.5
20260901010940 23 72 0.0 0.0 0.00 0.00 0.00 93 1012.5
20260901005141 24 72 0.0 0.0 0.00 0.00 0.00 90 1012.8
20260901004538 23 72 0.0 0.0 0.00 0.00 0.00 91 1012.5
20260901003923 23 72 0.0 0.0 0.00 0.00 0.00 92 1012.5
20260901003311 23 72 0.0 0.0 0.00 0.00 0.00 93 1012.5
20260901002738 23 72 0.0 0.0 0.00 0.00 0.00 93 1012.5
20260901002150 23 72 0.0 0.0 0.00 0.00 0.00 93 1012.5
20260901001508 23 72 0.0 0.0 0.00 0.00 0.00 92 1012.5
20260901000923 23 72 0.0 0.0 0.00 0.00 0.00 91 1012.5
20260901000321 24 72 0.0 0.0 0.00 0.00 0.00 89 1012.5
20260831235719 25 72 0.0 0.0 0.00 0.00 0.00 89 1012.5
20260831235146 25 72 0.0 0.0 0.00 0.00 0.00 88 1012.5
20260831233339 25 72 0.0 0.0 0.00 0.00 0.00 87 1012.5
20260831232713 25 72 0.0 0.0 0.00 0.00 0.00 87 1012.5
20260831232146 25 72 0.0 0.0 0.00 0.00 0.00 89 1012.5
20260831231544 25 72 0.0 0.0 0.00 0.00 0.00 89 1012.5
20260831230947 25 72 0.0 0.0 0.00 0.00 0.00 88 1012.5
20260831225739 26 72 0.0 0.0 0.00 0.00 0.00 87 1012.8
20260831225115 26 72 0.0 0.0 0.00 0.00 0.00 87 1012.8
20260831224536 26 72 0.0 0.0 0.00 0.00 0.00 86 1012.5
20260831223917 26 72 0.0 0.0 0.00 0.00 0.00 85 1012.5
20260831223336 26 72 1.6 1.6 0.00 0.00 0.00 84 1012.5
20260831222727 26 72 0.0 0.0 0.00 0.00 0.00 83 1012.8
20260831222122 27 72 0.0 0.0 0.00 0.00 0.00 83 1012.8
20260831220918 27 76 0.0 0.0 0.00 0.00 0.00 78 1012.8
20260831215707 27 76 0.0 0.0 0.00 0.00 0.00 78 1012.8
20260831215136 27 76 0.0 0.0 0.00 0.00 0.00 76 1012.8
20260831214533 28 76 0.0 0.0 0.00 0.00 0.00 75 1012.8
20260831213331 30 76 0.0 0.0 0.00 0.00 0.00 69 1012.8
20260831212707 30 77 1.6 1.6 0.00 0.00 0.00 67 1012.8
20260831212135 30 76 3.2 3.2 0.00 0.00 0.00 67 1012.8
20260831211535 30 76 0.0 0.0 0.00 0.00 0.00 71 1013.2
20260831210915 30 76 1.6 1.6 0.00 0.00 0.00 71 1013.2
20260831210325 30 84 0.0 0.0 0.00 0.00 0.00 69 1013.2
20260831205723 30 60 0.0 0.0 0.00 0.00 0.00 67 1013.2
20260831205140 30 60 3.2 3.2 0.00 0.00 0.00 68 1013.2
20260831204545 30 114 3.2 3.2 0.00 0.00 0.00 67 1013.2
20260831203911 31 126 3.2 3.2 0.00 0.00 0.00 67 1013.2
20260831203340 32 156 1.6 1.6 0.00 0.00 0.00 56 1013.2
20260831202743 32 126 3.2 3.2 0.00 0.00 0.00 60 1013.2
20260831202143 31 120 4.8 4.8 0.00 0.00 0.00 63 1013.2
20260831201516 31 120 3.2 3.2 0.00 0.00 0.00 66 1013.5
20260831200934 31 103 3.2 3.2 0.00 0.00 0.00 68 1013.5
20260831200326 32 126 4.8 4.8 0.00 0.00 0.00 60 1013.5
20260831195737 32 102 3.2 3.2 0.00 0.00 0.00 65 1013.5
20260831195147 33 24 3.2 3.2 0.00 0.00 0.00 59 1013.5
20260831194547 33 12 3.2 3.2 0.00 0.00 0.00 61 1013.5
20260831193915 32 12 1.6 1.6 0.00 0.00 0.00 64 1013.5
20260831193317 33 6 1.6 1.6 0.00 0.00 0.00 59 1013.5
20260831192719 32 6 0.0 0.0 0.00 0.00 0.00 56 1013.8
20260831192132 31 128 1.6 1.6 0.00 0.00 0.00 62 1013.8
20260831191542 31 126 3.2 3.2 0.00 0.00 0.00 67 1014.2
20260831190908 31 126 3.2 3.2 0.00 0.00 0.00 65 1014.2
20260831190327 30 126 3.2 3.2 0.00 0.00 0.00 69 1014.2
20260831185722 30 126 1.6 1.6 0.00 0.00 0.00 70 1014.2
20260831185149 30 126 0.0 0.0 0.00 0.00 0.00 69 1014.2
20260831184509 30 126 3.2 3.2 0.00 0.00 0.00 72 1014.2
20260831183315 28 126 3.2 3.2 0.00 0.00 0.00 77 1014.2
20260831182743 28 126 3.2 3.2 0.00 0.00 0.00 78 1014.2
20260831182120 28 126 3.2 3.2 0.00 0.00 0.00 76 1014.2
20260831181508 28 126 1.6 1.6 0.00 0.00 0.00 79 1014.5
20260831180910 28 126 0.0 0.0 0.00 0.00 0.00 76 1014.5
20260831180345 28 126 3.2 3.2 0.00 0.00 0.00 76 1014.5
20260831175718 28 126 3.2 3.2 0.00 0.00 0.00 77 1014.5
20260831175128 28 126 3.2 3.2 0.00 0.00 0.00 75 1014.5
20260831174542 28 126 3.2 3.2 0.00 0.00 0.00 74 1014.5
20260831173939 29 42 0.0 0.0 0.00 0.00 0.00 74 1014.5
20260831173329 29 42 3.2 3.2 0.00 0.00 0.00 74 1014.9
20260831172706 28 42 1.6 1.6 0.00 0.00 0.00 74 1014.9
20260831172136 29 42 3.2 3.2 0.00 0.00 0.00 74 1014.9
20260831171550 30 42 3.2 3.2 0.00 0.00 0.00 72 1014.5
20260831170347 30 42 3.2 3.2 0.00 0.00 0.00 71 1014.5
20260831165742 30 42 3.2 3.2 0.00 0.00 0.00 72 1014.9
20260831165109 28 42 3.2 3.2 0.00 0.00 0.00 73 1014.9
20260831164546 29 42 1.6 1.6 0.00 0.00 0.00 72 1014.9
20260831163913 29 42 3.2 3.2 0.00 0.00 0.00 73 1014.9
20260831162735 30 42 3.2 3.2 0.00 0.00 0.00 70 1014.9
20260831162144 31 84 3.2 3.2 0.00 0.00 0.00 65 1014.9
20260831161515 31 84 3.2 3.2 0.00 0.00 0.00 67 1014.9
20260831160937 30 84 3.2 3.2 0.00 0.00 0.00 67 1014.9
20260831160347 31 96 3.2 3.2 0.00 0.00 0.00 68 1014.9
20260831155723 30 96 1.6 1.6 0.00 0.00 0.00 72 1014.9
20260831155135 30 192 3.2 3.2 0.00 0.00 0.00 73 1014.9
20260831153308 29 300 0.0 0.0 0.00 0.00 0.00 75 1014.9
20260831152717 29 300 3.2 3.2 0.00 0.00 0.00 74 1015.2
20260831152111 28 300 0.0 0.0 0.00 0.00 0.00 76 1015.2
20260831151532 28 300 0.0 0.0 0.00 0.00 0.00 77 1014.9
20260831150926 28 300 3.2 3.2 0.00 0.00 0.00 77 1014.9
20260831150317 27 300 3.2 3.2 0.00 0.00 0.00 78 1014.9
20260831145150 27 300 3.2 3.2 0.00 0.00 0.00 80 1015.2
20260831144533 26 300 3.2 3.2 0.00 0.00 0.00 81 1015.2
20260831143922 26 300 3.2 3.2 0.00 0.00 0.00 83 1015.2
20260831143331 26 300 0.0 0.0 0.00 0.00 0.00 84 1015.2
20260831142706 25 300 1.6 1.6 0.00 0.00 0.00 85 1015.2
20260831142118 25 300 1.6 1.6 0.00 0.00 0.00 84 1015.2
20260831141536 25 300 0.0 0.0 0.00 0.00 0.00 85 1015.2
20260831140929 25 300 0.0 0.0 0.00 0.00 0.00 85 1015.2
20260831140339 24 300 0.0 0.0 0.00 0.00 0.00 87 1015.2
20260831135715 23 300 0.0 0.0 0.00 0.00 0.00 91 1015.5
20260831135125 23 300 0.0 0.0 0.00 0.00 0.00 92 1015.5
20260831134535 23 300 0.0 0.0 0.00 0.00 0.00 92 1014.9
20260831133340 22 300 3.2 3.2 0.00 0.00 0.00 94 1014.9
20260831132733 22 300 3.2 3.2 0.00 0.00 0.00 95 1015.5
20260831132121 22 300 0.0 0.0 0.00 0.00 0.00 95 1015.5
20260831131513 22 300 0.0 0.0 0.00 0.00 0.00 97 1015.5
20260831130314 22 300 0.0 0.0 0.00 0.00 0.00 97 1015.5
20260831125714 21 300 0.0 0.0 0.00 0.00 0.00 98 1015.5
20260831125135 21 300 0.0 0.0 0.00 0.00 0.00 99 1015.5
20260831123910 21 300 0.0 0.0 0.00 0.00 0.00 99 1014.9
20260831123350 21 300 0.0 0.0 0.00 0.00 0.00 99 1014.9
20260831122713 21 300 0.0 0.0 0.00 0.00 0.00 99 1014.9
20260831122148 21 300 0.0 0.0 0.00 0.00 0.00 99 1014.9
20260831121520 20 300 0.0 0.0 0.00 0.00 0.00 99 1014.9
20260831120318 20 300 0.0 0.0 0.00 0.00 0.00 99 1014.9
20260831115743 20 300 0.0 0.0 0.00 0.00 0.00 99 1014.9
20260831114546 20 300 0.0 0.0 0.00 0.00 0.00 99 1014.9
20260831113932 20 300 0.0 0.0 0.00 0.00 0.00 99 1014.9
20260831113326 20 300 0.0 0.0 0.00 0.00 0.00 99 1014.9
20260831112739 20 300 0.0 0.0 0.00 0.00 0.00 99 1014.9
20260831111510 20 300 0.0 0.0 0.00 0.00 0.00 99 1014.5
20260831110946 20 300 0.0 0.0 0.00 0.00 0.00 99 1014.5
20260831105122 20 300 0.0 0.0 0.00 0.00 0.00 99 1014.5
20260831104545 20 300 0.0 0.0 0.00 0.00 0.00 99 1014.5
20260831103922 20 300 0.0 0.0 0.00 0.00 0.00 99 1014.5
20260831102731 20 300 0.0 0.0 0.00 0.00 0.00 99 1014.5
20260831102144 20 300 3.2 3.2 0.00 0.00 0.00 99 1014.5
20260831100330 20 300 0.0 0.0 0.00 0.00 0.00 99 1014.2
20260831095726 20 300 0.0 0.0 0.00 0.00 0.00 99 1014.2
20260831095136 20 300 0.0 0.0 0.00 0.00 0.00 99 1014.2
20260831094508 20 300 0.0 0.0 0.00 0.00 0.00 99 1014.2
20260831093319 20 300 0.0 0.0 0.00 0.00 0.00 99 1014.2
20260831092744 20 300 3.2 3.2 0.00 0.00 0.00 99 1013.8
20260831091515 20 300 3.2 3.2 0.00 0.00 0.00 98 1013.8
20260831090932 20 300 3.2 3.2 0.00 0.00 0.00 98 1013.8
20260831090349 20 300 3.2 3.2 0.00 0.00 0.00 99 1013.8
20260831085745 20 300 1.6 1.6 0.00 0.00 0.00 99 1013.8
20260831085143 20 300 0.0 0.0 0.00 0.00 0.00 98 1013.8
20260831084541 20 300 0.0 0.0 0.00 0.00 0.00 98 1013.8
20260831083914 20 300 3.2 3.2 0.00 0.00 0.00 98 1013.8
20260831083350 20 300 0.0 0.0 0.00 0.00 0.00 98 1013.8
20260831082735 20 300 3.2 3.2 0.00 0.00 0.00 98 1013.5
20260831082129 20 300 1.6 1.6 0.00 0.00 0.00 98 1013.5
20260831081521 20 300 0.0 0.0 0.00 0.00 0.00 98 1013.8
20260831080934 20 300 0.0 0.0 0.00 0.00 0.00 98 1013.8
20260831080325 20 300 0.0 0.0 0.00 0.00 0.00 99 1013.8
20260831075739 20 300 4.8 4.8 0.00 0.00 0.00 99 1013.8
20260831075148 20 300 3.2 3.2 0.00 0.00 0.00 98 1013.8
20260831073946 20 300 0.0 0.0 0.00 0.00 0.00 98 1013.5
20260831073349 20 300 0.0 0.0 0.00 0.00 0.00 98 1013.5
20260831072742 20 300 0.0 0.0 0.00 0.00 0.00 98 1013.8
20260831072149 20 300 0.0 0.0 0.00 0.00 0.00 98 1013.8
20260831071523 20 300 0.0 0.0 0.00 0.00 0.00 98 1013.5
20260831070928 20 300 0.0 0.0 0.00 0.00 0.00 98 1013.5
20260831070307 20 300 0.0 0.0 0.00 0.00 0.00 98 1013.5
20260831065736 20 300 0.0 0.0 0.00 0.00 0.00 98 1013.8
20260831065141 20 300 0.0 0.0 0.00 0.00 0.00 98 1013.8
20260831064514 20 300 0.0 0.0 0.00 0.00 0.00 98 1013.8
20260831063335 20 300 0.0 0.0 0.00 0.00 0.00 98 1013.8
20260831062738 20 300 0.0 0.0 0.00 0.00 0.00 98 1013.8
20260831061510 20 300 0.0 0.0 0.00 0.00 0.00 98 1013.8
20260831060929 20 300 0.0 0.0 0.00 0.00 0.00 98 1013.8
20260831060306 20 300 0.0 0.0 0.00 0.00 0.00 98 1013.8
20260831055726 20 300 0.0 0.0 0.00 0.00 0.00 98 1013.8
20260831055110 20 300 0.0 0.0 0.00 0.00 0.00 97 1013.8
20260831054545 20 300 0.0 0.0 0.00 0.00 0.00 96 1013.8
20260831053931 20 300 0.0 0.0 0.00 0.00 0.00 96 1013.8
20260831053334 20 300 0.0 0.0 0.00 0.00 0.00 96 1013.8
20260831052718 20 300 0.0 0.0 0.00 0.00 0.00 96 1014.2
20260831052122 20 300 0.0 0.0 0.00 0.00 0.00 95 1014.2
20260831051546 20 300 0.0 0.0 0.00 0.00 0.00 95 1013.8
20260831050938 21 300 0.0 0.0 0.00 0.00 0.00 95 1013.8
20260831050333 21 300 0.0 0.0 0.00 0.00 0.00 94 1013.8
20260831045726 20 300 0.0 0.0 0.00 0.00 0.00 95 1013.8
20260831045111 21 300 0.0 0.0 0.00 0.00 0.00 95 1013.8
20260831044519 21 300 0.0 0.0 0.00 0.00 0.00 94 1013.8
20260831042732 21 300 0.0 0.0 0.00 0.00 0.00 94 1014.2
20260831042110 21 300 1.6 1.6 0.00 0.00 0.00 94 1014.2
20260831041516 21 300 0.0 0.0 0.00 0.00 0.00 93 1014.2
20260831040912 21 300 0.0 0.0 0.00 0.00 0.00 93 1014.2
20260831035738 21 300 0.0 0.0 0.00 0.00 0.00 94 1013.8
20260831035107 21 300 0.0 0.0 0.00 0.00 0.00 93 1013.8
20260831034519 21 300 0.0 0.0 0.00 0.00 0.00 93 1013.8
20260831033929 21 300 0.0 0.0 0.00 0.00 0.00 93 1013.8
20260831033344 21 300 0.0 0.0 0.00 0.00 0.00 93 1013.8
20260831032730 21 300 0.0 0.0 0.00 0.00 0.00 93 1014.2
20260831032131 22 300 0.0 0.0 0.00 0.00 0.00 93 1014.2
20260831031519 22 300 0.0 0.0 0.00 0.00 0.00 92 1014.2
20260831030941 22 300 0.0 0.0 0.00 0.00 0.00 92 1014.2
20260831030318 22 300 0.0 0.0 0.00 0.00 0.00 92 1014.2
20260831025140 22 300 0.0 0.0 0.00 0.00 0.00 93 1014.2
20260831024541 22 300 0.0 0.0 0.00 0.00 0.00 92 1014.2